EUTELSAT HOTBIRD 13C

Last updated on Mon Dec 15 2025 00:02:53 GMT+0000 (Coordinated Universal Time)

1 33459U 08065A 25348.26407006 -.00000266 00000+0 00000+0 0 9993 2 33459 2.4756 81.4091 0001558 230.5068 177.6094 1.00046092 45494
UTC large
Height (km)
Speed (km/s)
/
Latitude / Longitude
Inclination (degrees)
Orbital Period (minutes)
Azimuth
Elevation
Range (km)
Doppler Factor

Next 0 passes for location: London (51.5072 / 0.1276)

Sorry there are no passes over London.